{"data":{"norad_id":57121,"epoch":"2026-09-20T23:32:52.190304Z","epoch_age_seconds":79285,"freshness":"FRESH","line1":"1 57121U 23090W   26263.98115961 -.00000836  00000+0 -20847-4 0  9992","line2":"2 57121  43.0039 258.3058 0001463 279.0820  80.9866 15.27572975180017","mean_motion":15.27572975,"eccentricity":0.0001463,"inclination_deg":43.0039,"raan_deg":258.3058,"arg_perigee_deg":279.082,"mean_anomaly_deg":80.9866,"bstar":-2.0847e-5,"rev_number":18001,"period_min":94.267182227415,"perigee_km":482.06633689416,"apogee_km":484.07392610084,"semimajor_km":6861.2071314975,"source":"CELESTRAK","updated_at":"2026-09-21T09:00:33.562004Z"}}